Torna al catalogo

USA 55

AttivoMilitarePO
NORAD 20547·PAYLOAD·🇺🇸 United States

Lanciato Apr 5, 1990 da Vandenberg Space Force Base

Loading…

Prossimi Passaggi (prossime 24 ore)

TLE

AggiornatoSource: Space-Track

Epoca: Sep 14, 2026, 21:36 UTC

1 20547U 90028B   26257.90047638  .00004848  00000-0  97706-4 0  9993
2 20547  94.0971 194.0700 0055691 145.6111 214.8771 15.44964357 15718

Traccia USA 55 in tempo reale con AllMySat

Download on the App Store